Regional Weather Roundup
Issued by NWS

Home | Current Version | Previous Version | Text Only | Print | Product List | Glossary On
Versions: 1 2 3 4 5 6 7 8 9 10 11 12 13 14 15 16 17 18 19 20 21 22 23 24 25 26 27 28 29 30 31 32 33 34 35 36 37 38 39 40 41 42 43 44 45 46 47 48 49 50
000
ASUS44 KJAN 291010
RWRMS

MISSISSIPPI HOURLY WEATHER ROUNDUP
NATIONAL WEATHER SERVICE JACKSON MS
500 AM CDT SUN MAR 29 2020

NOTE: "FAIR: INDICATES FEW OR NO CLOUDS BELOW 12,000 FEET WITH NO
SIGNIFICANT WEATHER AND/OR OBSTRUCTIONS TO VISIBILITY.

MSZ001>002-007>008-010>013-018>021-025>028-034>036-291100-
NORTHWEST MISSISSIPPI

CITY           SKY/WX    TMP DP  RH WIND       PRES   REMARKS
BATESVILLE     FAIR      57  54  88 SW5       29.97R
CLARKSDALE       N/A     57  57 100 CALM      29.98R
CLEVELAND      FAIR      56  53  89 W7        30.00R
GREENWOOD      FAIR      59  57  93 SW5       30.02R
GREENVILLE     FAIR      57  51  80 W10       30.01R
OLIVE BRANCH   CLEAR     55  54  94 SW7       29.94R
OXFORD         FAIR      57  54  88 VRB3      29.99R
TUNICA         FAIR      54  52  94 SW7       29.97R
WINONA         FAIR      59  54  85 SW3       30.03R
$$

MSZ003>006-009-014>017-022>024-029>033-037>039-291100-
NORTHEAST MISSISSIPPI

CITY           SKY/WX    TMP DP  RH WIND       PRES   REMARKS
ABERDEEN       FAIR      63  46  55 SW6       30.01R
COLUMBUS AFB   NOT AVBL
CORINTH        FAIR      63  57  82 SW7       29.93R
GOLDN TRIANGLE FAIR      61  60  97 W6        29.99R
STARKVILLE     FAIR      57  55  94 W5        30.02R
TUPELO         FAIR      64  59  83 SW9       29.97R
$$

MSZ040-058-291100-
CENTRAL MISSISSIPPI

CITY           SKY/WX    TMP DP  RH WIND       PRES   REMARKS
JACKSON INTL   FAIR      60  56  86 SW3       30.04R
JACKSON HAWKNS FAIR      60  55  83 W5        30.05R
MADISON        FAIR      55  55 100 CALM      30.03R
MERIDIAN KEY   MOCLDY    68  62  81 W6        30.02R
MERIDIAN NAS   MOCLDY    65  62  90 W5        30.02R
RAYMOND        FAIR      59  59 100 CALM      30.05R
VICKSBURG VKS  SUNNY     59  59 100 CALM      30.04R
$$

MSZ059>079-291100-
SOUTH MISSISSIPPI

CITY           SKY/WX    TMP DP  RH WIND       PRES   REMARKS
BROOKHAVEN     CLOUDY    59  57  94 CALM      30.05R
HATTIESBURG    FAIR      69  65  86 W5        30.02R
LAUREL         SUNNY     66  64  94 W5        30.02R
MCCOMB         FAIR      63  60  90 N5        30.04R
NATCHEZ        FAIR      58  58 100 CALM      30.05R
PINE BELT      FAIR      66  65  96 NW5       30.03R
$$

MSZ080>082-291100-
COASTAL MISSISSIPPI

CITY           SKY/WX    TMP DP  RH WIND       PRES   REMARKS
BILOXI         MOCLDY    76  73  88 SW12      30.00S
PASCAGOULA     MOCLDY    76  73  91 SW3       30.01S
GULFPORT       CLOUDY    76  71  85 SW3       30.00S
$$

LAZ007>009-015>016-023>026-291100-
NORTHEAST LOUISIANA

CITY           SKY/WX    TMP DP  RH WIND       PRES   REMARKS
BASTROP        FAIR      52  51  98 CALM      30.04R
TALLULAH/VBURG FAIR      61  55  81 CALM      30.05R
VIDALIA        FAIR      60  59  96 CALM      30.04R
$$



USA.gov is the U.S. government's official web portal to all federal, state and local government web resources and services.